SKG038 CYHM-CYOO

Flight info

Callsign SKG038
Flight time 0h 16m
Altitude 2000
Route
Aircraft

Departure

Time 2026-04-21 01:32
Airport John C. Munro Hamilton International Airport (CYHM)

Arrival

Time 2026-04-21 01:48
Airport Oshawa Executive Airport (CYOO)
Time Latitude Longitude Altitude Speed Heading
2026-04-21 01:31 43.32041 -79.75618 2028 ft 167 kts 39°
2026-04-21 01:32 43.32919 -79.74555 2030 ft 168 kts 39°
2026-04-21 01:32 43.33779 -79.73512 2033 ft 168 kts 39°
2026-04-21 01:32 43.34651 -79.72456 2035 ft 169 kts 39°
2026-04-21 01:32 43.35534 -79.71386 2031 ft 169 kts 39°
2026-04-21 01:33 43.36420 -79.70314 2033 ft 169 kts 39°
2026-04-21 01:33 43.37305 -79.69245 2036 ft 170 kts 39°
2026-04-21 01:33 43.38185 -79.68185 2040 ft 170 kts 39°
2026-04-21 01:33 43.39051 -79.67144 2038 ft 169 kts 39°
2026-04-21 01:34 43.39939 -79.66075 2033 ft 169 kts 39°
2026-04-21 01:34 43.40825 -79.65009 2031 ft 169 kts 39°
2026-04-21 01:34 43.41712 -79.63942 2028 ft 169 kts 39°
2026-04-21 01:34 43.42585 -79.62891 2022 ft 169 kts 39°
2026-04-21 01:35 43.43475 -79.61821 2027 ft 169 kts 39°
2026-04-21 01:35 43.44364 -79.60760 2027 ft 169 kts 38°
2026-04-21 01:35 43.45246 -79.59712 2029 ft 169 kts 38°
2026-04-21 01:35 43.46154 -79.58682 2029 ft 169 kts 37°
2026-04-21 01:36 43.47068 -79.57651 2029 ft 169 kts 37°
2026-04-21 01:36 43.47953 -79.56590 1895 ft 168 kts 34°
2026-04-21 01:36 43.48866 -79.55468 844 ft 176 kts 27°
2026-04-21 01:36 43.49756 -79.54407 836 ft 158 kts 64°
2026-04-21 01:37 43.50379 -79.53083 668 ft 170 kts 41°
2026-04-21 01:37 43.51301 -79.51948 313 ft 183 kts 40°
2026-04-21 01:37 43.52228 -79.50834 278 ft 176 kts 39°
2026-04-21 01:37 43.53145 -79.49739 287 ft 172 kts 40°
2026-04-21 01:38 43.54021 -79.48615 294 ft 171 kts 43°
2026-04-21 01:38 43.54869 -79.47461 299 ft 170 kts 44°
2026-04-21 01:38 43.55672 -79.46242 275 ft 171 kts 47°
2026-04-21 01:38 43.56397 -79.45051 680 ft 139 kts 47°
2026-04-21 01:39 43.57099 -79.43834 299 ft 174 kts 52°
2026-04-21 01:39 43.57803 -79.42463 270 ft 179 kts 54°
2026-04-21 01:39 43.58492 -79.41032 301 ft 178 kts 56°
2026-04-21 01:39 43.59226 -79.39664 332 ft 175 kts 40°
2026-04-21 01:40 43.59983 -79.38354 327 ft 177 kts 45°
2026-04-21 01:40 43.60845 -79.37117 331 ft 176 kts 45°
2026-04-21 01:40 43.61655 -79.35858 318 ft 179 kts 47°
2026-04-21 01:40 43.62515 -79.34610 281 ft 180 kts 43°
2026-04-21 01:41 43.63341 -79.33349 287 ft 179 kts 53°
2026-04-21 01:41 43.64077 -79.31979 269 ft 177 kts 52°
2026-04-21 01:41 43.64757 -79.30756 330 ft 171 kts 51°
2026-04-21 01:41 43.65397 -79.29555 392 ft 151 kts 51°
2026-04-21 01:42 43.66073 -79.28396 269 ft 155 kts 47°
2026-04-21 01:42 43.66918 -79.27691 355 ft 140 kts
2026-04-21 01:42 43.67827 -79.27011 289 ft 159 kts 32°
2026-04-21 01:42 43.68711 -79.26144 309 ft 161 kts 39°
2026-04-21 01:43 43.69517 -79.25018 305 ft 169 kts 49°
2026-04-21 01:43 43.70342 -79.23876 356 ft 162 kts 43°
2026-04-21 01:43 43.71149 -79.22783 366 ft 166 kts 41°
2026-04-21 01:43 43.72113 -79.21889 319 ft 167 kts 35°
2026-04-21 01:44 43.73007 -79.20861 293 ft 168 kts 40°
2026-04-21 01:44 43.73881 -79.19802 281 ft 167 kts 44°
2026-04-21 01:44 43.74672 -79.18654 308 ft 164 kts 47°
2026-04-21 01:44 43.75365 -79.17399 273 ft 167 kts 62°
2026-04-21 01:45 43.75787 -79.15904 264 ft 168 kts 75°
2026-04-21 01:45 43.76344 -79.14615 325 ft 157 kts 24°
2026-04-21 01:45 43.77198 -79.13648 277 ft 163 kts 41°
2026-04-21 01:45 43.78129 -79.12743 267 ft 163 kts 41°
2026-04-21 01:46 43.79088 -79.11953 268 ft 163 kts 36°
2026-04-21 01:46 43.79881 -79.10831 259 ft 162 kts 38°
2026-04-21 01:46 43.80769 -79.09928 290 ft 157 kts 34°
2026-04-21 01:46 43.81218 -79.08657 273 ft 154 kts 104°
2026-04-21 01:47 43.81045 -79.07278 379 ft 144 kts 129°
2026-04-21 01:47 43.80676 -79.06047 383 ft 151 kts 76°
2026-04-21 01:47 43.81333 -79.04842 256 ft 163 kts 46°
2026-04-21 01:47 43.81634 -79.03424 308 ft 153 kts 72°
2026-04-21 01:48 43.81709 -79.02037 306 ft 151 kts 34°
2026-04-21 01:48 43.82126 -79.00829 355 ft 152 kts 63°
2026-04-21 01:48 43.82458 -79.00018 253 ft 0 kts 42°
2026-04-21 01:48 43.82415 -79.00053 253 ft 0 kts 46°
2026-04-21 01:49 43.82476 -78.99986 396 ft 46 kts
2026-04-21 01:49 43.82584 -79.00030 404 ft 78 kts 316°
2026-04-21 01:49 43.82563 -78.99949 648 ft 0 kts 113°
2026-04-21 01:49 43.82662 -78.99813 607 ft 119 kts 85°
2026-04-21 01:50 43.82768 -78.98614 420 ft 106 kts 95°
2026-04-21 01:50 43.82818 -78.97575 382 ft 121 kts 115°
2026-04-21 01:50 43.82177 -78.97846 406 ft 139 kts 275°
2026-04-21 01:50 43.82770 -78.98046 345 ft 142 kts 98°
2026-04-21 01:51 43.82015 -78.98045 407 ft 148 kts 252°
2026-04-21 01:51 43.82649 -78.98682 383 ft 146 kts 47°
2026-04-21 01:51 43.82162 -78.97802 400 ft 150 kts 188°
2026-04-21 01:51 43.82357 -78.98537 269 ft 156 kts 22°
2026-04-21 01:52 43.83042 -78.97518 364 ft 150 kts 53°
2026-04-21 01:52 43.84456 -78.95369 295 ft 155 kts 72°
2026-04-21 01:52 43.84763 -78.93995 297 ft 151 kts 25°
2026-04-21 01:53 43.85348 -78.93044 539 ft 142 kts 64°
2026-04-21 01:53 43.85984 -78.91861 357 ft 163 kts 49°
2026-04-21 01:53 43.86750 -78.90695 334 ft 164 kts 47°
2026-04-21 01:53 43.87510 -78.89635 389 ft 161 kts 44°
2026-04-21 01:54 43.88384 -78.88749 479 ft 154 kts 32°
2026-04-21 01:54 43.89105 -78.87605 431 ft 162 kts 54°
2026-04-21 01:54 43.89956 -78.86709 529 ft 159 kts 352°
2026-04-21 01:54 43.90849 -78.87611 552 ft 163 kts 318°
2026-04-21 01:55 43.91678 -78.88704 526 ft 167 kts 318°
2026-04-21 01:55 43.92237 -78.89726 491 ft 88 kts 322°
2026-04-21 01:55 43.92417 -78.90291 464 ft 49 kts 296°
2026-04-21 01:55 43.92503 -78.90327 466 ft 9 kts 58°
2026-04-21 01:56 43.92504 -78.90215 465 ft 13 kts 42°
2026-04-21 01:56 43.92566 -78.90277 466 ft 10 kts 338°
2026-04-21 01:56 43.92573 -78.90273 466 ft 0 kts 65°